COSMOS 2527 (756)

Last updated on Dec. 5, 2020, 6:14 a.m. UTC

1 43508U 18053A   20339.47789876  .00000092  00000-0  00000-0 0  9991
2 43508  64.8764 141.5928 0006366 212.3907 167.1810  2.13102586 19217
UTC
Height (km)
Latitude
Longitude
Inclination
Orbital Period
UTC large
Height (km)
Speed (km/s)
/
Latitude / Longitude
Inclination (degrees)
Orbital Period (minutes)
Azimuth
Elevation
Range (km)
Doppler Factor
iOS Compass Heading
iOS Angle

Next 30 passes for location: Hong Kong

Rise time Rise Azimuth (degrees) Set time Set Azimuth (degrees) Duration Max altitude (degrees)

No matching passes for this satellites